STARLINK-5482 (56358 NORAD) Tracking and Keplerian Element Data

This shows tracking and keplerian element data for the satellite.

Feedback or suggestion? Click here.




ElementValue
Catalog56358
NameSTARLINK-5482
Epoch Orbit181
Epoch Day127.00001157
Epoch Year2023
RAAN126.4756
Inclination97.6638
Eccentricity0.0001455
Argument of Perigee95.9558
Mean Anonmoly237.1325
Mean Motion15.68274927
Decay Rate-0.00867701
L11 56358U 23058AT 23127.00001157 -.00867701 00000+0 -86193-2 0 9993
L22 56358 97.6638 126.4756 0001455 95.9558 237.1325 15.68274927 1819



Live tracking and technical data element details for STARLINK-5482 (NORAD 56358). STARLINK-5482 can be tracked NOW for your location showing map with azimuth and elevation plus other details from your city location.







IsCatalogInMostPopularTable: catalog: 56358, numindb: 7
Update: records affected: 1



GetName: 56358 STARLINK-5482

Hit Count: updated at: Wed, 07 Jun 2023 09:08:23 GMT